Torna al catalogo

COSMOS 2382

GLONASS

LostNavigazioneMEO
NORAD 26987·PAYLOAD·🇷🇺 Russia

Lanciato Dec 1, 2001 da Baikonur Cosmodrome

Loading…

Prossimi Passaggi (prossime 24 ore)

TLE

ObsoletoSource: Space-Track

Epoca: Aug 6, 2026, 09:50 UTC

1 26987U 01053A   26218.41016875 -.00000002  00000-0  00000+0 0  9994
2 26987  64.1209  55.6663 0003498 196.1489 344.4848  2.13104799192024

Traccia COSMOS 2382 in tempo reale con AllMySat

Download on the App Store